Home > Weather > Punta Cana > Past weeks

Flag for Dominican Republic Weather for the Past 2 Weeks in Punta Cana, Dominican Republic

Now
68 °F

Passing clouds.


Feels Like: 68 °F
Forecast: 69 / 82 °F
Wind: No wind

Location: Punta Cana

Current Time: Feb 6, 2016 at 5:29:45 AM

Latest Report: Feb 6, 2016 at 5:00 AM


Visibility: N/A

Pressure: 29.98 "Hg

Humidity: 100%

Dew point: 68 °F

Location of Punta CanaLocation

Historic Weather in Punta Cana — Graph

°F

Punta Cana Temperature Yesterday

Maximum temperature yesterday: 82 °F (at 1:00 PM)
Minimum temperature yesterday: 66 °F (at 2:00 AM)
Average temperature yesterday: 73 °F

High & Low Weather Summary for the Past Weeks

 TemperatureHumidityPressure
High84 °F (Jan 23, 12:00 PM)100% (Jan 22, 5:00 AM)30.18 "Hg (Jan 22, 5:00 AM)
Low66 °F (Feb 5, 2:00 AM)51% (Feb 4, 10:00 AM)29.92 "Hg (Jan 23, 4:00 AM)
Average78 °F79%30.02 "Hg
* Reported Jan 22 4:00 AM — Feb 6 4:00 AM, Punta Cana, Weather by CustomWeather, © 2016

Note: Actual official high and low records may vary slightly from our data, if they occured in-between our weather recording intervals... More about our weather records

Advertising

Punta Cana Weather History for the Previous 24 Hours

 ConditionsComfort  
Time TempWeatherWind HumidityBarometerVisibility
4:00 AM
Sat, Feb 6
68 °FPassing clouds.No wind100%29.98 "HgN/A
3:00 AM70 °FPassing clouds.5 mph94%29.98 "HgN/A
2:00 AM72 °FPassing clouds.No wind94%30.01 "HgN/A
1:00 AM72 °FPassing clouds.No wind94%30.01 "HgN/A
12:00 AM72 °FPassing clouds.No wind94%30.04 "HgN/A
11:00 PM
Fri, Feb 5
72 °FPassing clouds.No wind94%30.04 "HgN/A
10:00 PM72 °FPassing clouds.No wind94%30.01 "HgN/A
9:00 PM72 °FPassing clouds.5 mph94%30.01 "HgN/A
8:00 PM72 °FPassing clouds.7 mph94%29.98 "HgN/A
7:00 PM73 °FPassing clouds.6 mph89%29.98 "HgN/A
6:00 PM75 °FScattered clouds.7 mph83%29.98 "HgN/A
5:00 PM75 °FPartly sunny.8 mph83%29.95 "HgN/A
4:00 PM79 °FPartly sunny.5 mph70%29.95 "HgN/A
3:00 PM79 °FScattered clouds.12 mph84%29.95 "HgN/A
2:00 PM82 °FScattered clouds.9 mph66%29.98 "HgN/A
1:00 PM82 °FScattered clouds.9 mph66%29.98 "HgN/A
12:00 PM81 °FScattered clouds.7 mph70%30.01 "HgN/A
11:00 AM77 °FRain. Scattered clouds.9 mph74%30.04 "Hg5 mi
10:00 AM75 °FScattered clouds.7 mph83%30.01 "HgN/A
9:00 AM73 °FPassing clouds.No wind94%29.98 "HgN/A
8:00 AM68 °FPassing clouds.No wind100%29.98 "HgN/A
7:00 AM68 °FPassing clouds.No wind100%29.95 "HgN/A
6:00 AM66 °FPassing clouds.No wind100%29.92 "HgN/A
5:00 AM66 °FPassing clouds.No wind100%29.92 "HgN/A
Weather by CustomWeather, © 2016

See weather overviewHow to use our weather pages